Change the Weather History Date:

Monday, June 3, 2013

  Actual Average Record
Temperature  
Mean Temperature 73 °F 77 °F  
Max Temperature 83 °F 87 °F 100 °F (1977)
Min Temperature 63 °F 67 °F 49 °F (1956)
Degree Days  
Heating Degree Days 0 0  
Month to date heating degree days 0 0  
Since 1 June heating degree days 0 0  
Since 1 July heating degree days 2695 2774  
Cooling Degree Days 8 12  
Month to date cooling degree days 30 34  
Year to date cooling degree days 313 356  
Since 1 June cooling degree days 30 34  
Growing Degree Days 22 (Base 50)    
Moisture  
Dew Point 63 °F    
Average Humidity 72    
Maximum Humidity 93    
Minimum Humidity 51    
Precipitation  
Precipitation 0.00 in 0.11 in 1.56 in (1950)
Month to date precipitation 1.14 0.30  
Year to date precipitation 25.65 24.56  
Sea Level Pressure  
Sea Level Pressure 29.97 in    
Wind  
Wind Speed 6 mph (NNE)    
Max Wind Speed 13 mph    
Max Gust Speed 18 mph    
Visibility 10 miles    
Events      
T = Trace of Precipitation, MM = Missing Value Source: NWS Daily Summary

Daily Weather History Graph

Daily Weather History Graph

Search for Another Location

Airport or City:

Trip Planner

Search our weather history database for the weather conditions in past years. The results will help you decide how hot, cold, wet, or windy it might be!

Date:

Astronomy

Jun. 03, 2013 Rise Set
Actual Time 5:54 AM CDT 8:10 PM CDT
Civil Twilight 5:25 AM CDT 8:38 PM CDT
Nautical Twilight 4:50 AM CDT 9:13 PM CDT
Astronomical Twilight 4:13 AM CDT 9:51 PM CDT
Moon 2:39 AM CDT (6/3) 3:51 PM CDT (6/3)
Length of Visible Light 15h 12m
Length of Day
14h 15m
Waning Crescent, 22% of the Moon is Illuminated
Jun 3
Waning Crescent
Jun 8
New
Jun 16
First Quarter
Jun 23
Full
Jun 29
Last Quarter

Hourly Weather History & Observations

Time (CDT) Temp. Heat Index Dew Point Humidity Pressure Visibility Wind Dir Wind Speed Gust Speed Precip Events Conditions
12:53 AM 66.9 °F - 64.0 °F 90% 29.96 in 10.0 mi NE 5.8 mph - N/A   Clear
1:53 AM 66.9 °F - 63.0 °F 87% 29.96 in 10.0 mi NNE 9.2 mph - N/A   Clear
2:53 AM 64.9 °F - 62.1 °F 90% 29.96 in 10.0 mi North 4.6 mph - N/A   Clear
3:53 AM 64.9 °F - 62.1 °F 90% 29.97 in 10.0 mi North 8.1 mph - N/A   Overcast
4:53 AM 63.0 °F - 61.0 °F 93% 29.98 in 10.0 mi North 5.8 mph - N/A   Scattered Clouds
5:22 AM 62.6 °F - 60.8 °F 94% 29.96 in 10.0 mi North 6.9 mph - N/A   Mostly Cloudy
5:53 AM 63.0 °F - 61.0 °F 93% 30.01 in 10.0 mi North 5.8 mph - N/A   Mostly Cloudy
6:53 AM 64.0 °F - 61.0 °F 90% 30.02 in 10.0 mi North 5.8 mph - N/A   Overcast
7:53 AM 66.0 °F - 62.1 °F 87% 30.03 in 10.0 mi North 6.9 mph - N/A   Overcast
8:53 AM 70.0 °F - 63.0 °F 78% 30.03 in 10.0 mi NNE 8.1 mph - N/A   Scattered Clouds
9:53 AM 73.9 °F - 63.0 °F 68% 30.02 in 10.0 mi NE 9.2 mph - N/A   Clear
10:53 AM 75.9 °F - 63.0 °F 64% 30.01 in 10.0 mi NE 8.1 mph - N/A   Clear
11:53 AM 79.0 °F - 63.0 °F 58% 30.01 in 10.0 mi NNE 8.1 mph - N/A   Clear
12:53 PM 80.1 °F 81.2 °F 62.1 °F 54% 29.99 in 10.0 mi NNE 11.5 mph 18.4 mph N/A   Scattered Clouds
1:53 PM 81.0 °F 81.6 °F 60.1 °F 49% 29.98 in 10.0 mi NE 6.9 mph - N/A   Scattered Clouds
2:53 PM 82.0 °F 83.0 °F 62.1 °F 51% 29.96 in 10.0 mi North 9.2 mph - N/A   Clear
3:53 PM 82.0 °F 83.1 °F 63.0 °F 52% 29.95 in 10.0 mi NNW 5.8 mph - N/A   Clear
4:53 PM 82.0 °F 83.1 °F 63.0 °F 52% 29.93 in 10.0 mi North 4.6 mph - N/A   Partly Cloudy
5:53 PM 81.0 °F 81.6 °F 60.1 °F 49% 29.93 in 10.0 mi North 4.6 mph - N/A   Mostly Cloudy
6:53 PM 79.0 °F - 62.1 °F 56% 29.93 in 10.0 mi North 5.8 mph - N/A   Scattered Clouds
7:53 PM 75.0 °F - 64.0 °F 69% 29.94 in 10.0 mi North 4.6 mph - N/A   Partly Cloudy
8:53 PM 70.0 °F - 66.0 °F 87% 29.94 in 10.0 mi Calm Calm - N/A   Scattered Clouds
9:53 PM 68.0 °F - 64.9 °F 90% 29.96 in 10.0 mi Calm Calm - N/A   Clear
10:53 PM 66.0 °F - 64.0 °F 93% 29.97 in 10.0 mi North 4.6 mph - N/A   Clear
11:53 PM 66.0 °F - 64.0 °F 93% 29.97 in 10.0 mi Calm Calm - N/A   Clear